Theta_e
337 341 346 347 349 351 352 352 351 352 350 350 350 350 350 350 349 349 348 348 348 348 349 349 349 350 350 349 350 349 349 349 348 348 348 349 348 348 347 348 347 348 348 348 348 348 351 352 350 351 350 351 351 350 350 349 348 345 342 340 339 340 340 340 340 342 342 342 344 347 350 353 353 353 351 351 352 351 348 349 350 344 346 348 350
337 342 347 349 349 351 352 351 352 352 350 350 350 349 349 349 349 349 348 348 348 348 348 349 349 350 349 349 349 349 349 348 348 348 347 347 347 347 347 347 347 347 348 347 347 350 350 350 350 350 350 349 348 347 347 346 345 343 340 337 336 337 337 338 340 340 339 339 340 342 345 351 353 352 350 349 350 351 349 348 346 344 345 349 349
339 343 347 350 348 350 351 351 352 352 350 350 349 349 349 349 349 349 349 348 348 348 348 349 349 349 349 349 349 348 348 347 347 347 347 346 346 346 346 347 350 346 348 349 349 349 349 349 349 348 347 346 345 345 344 343 342 341 338 335 334 334 335 335 337 337 337 337 338 341 343 347 350 351 351 349 349 349 348 348 347 345 348 349 348
338 342 347 348 345 348 350 352 351 351 350 350 349 349 349 348 349 349 349 348 348 348 348 348 348 349 348 348 348 348 348 347 347 347 347 346 347 347 347 347 349 349 348 348 348 348 348 347 347 346 345 344 343 342 341 340 339 338 336 334 332 332 333 333 334 334 334 335 336 340 346 349 348 349 350 349 349 350 348 348 348 347 349 349 349
337 342 347 349 349 348 349 351 352 351 350 350 349 349 349 349 348 349 348 349 348 348 348 348 348 348 348 348 348 348 348 347 348 347 347 346 346 346 346 346 347 348 347 347 347 347 347 346 345 344 343 342 341 340 339 338 337 336 334 332 331 331 332 331 332 332 331 331 334 339 345 348 350 348 349 349 349 349 349 349 347 347 348 349 349
337 343 347 347 348 351 347 349 352 351 351 350 349 350 349 349 348 347 347 348 348 348 348 348 347 348 348 348 348 348 348 348 347 347 346 346 345 345 345 345 346 346 346 346 346 345 345 344 343 342 341 339 338 337 336 336 335 333 331 330 329 329 330 331 331 328 328 328 333 341 342 346 347 348 348 349 349 347 349 347 346 346 348 348 348
338 343 346 347 348 347 345 349 351 351 351 350 350 349 349 349 348 348 348 347 347 347 348 347 348 348 348 348 348 348 348 347 345 345 345 345 345 345 345 345 345 346 345 345 344 343 342 342 341 341 339 337 336 336 335 334 333 331 329 328 328 329 328 328 329 327 326 332 337 336 338 343 346 348 347 348 348 347 346 346 346 346 347 347 348
339 344 346 347 347 345 344 349 351 350 350 350 350 350 349 348 348 348 348 348 347 347 348 348 347 347 348 348 348 347 347 345 344 343 342 342 343 344 344 344 344 344 344 343 343 342 340 339 339 338 337 336 335 334 333 331 331 329 327 326 326 326 325 326 325 323 325 330 335 337 337 340 344 346 347 347 346 346 346 346 346 346 346 346 345
338 342 345 347 346 343 343 346 351 350 350 350 350 349 349 349 348 348 348 347 347 348 348 348 348 347 348 348 347 347 346 344 343 342 340 340 340 341 342 341 342 342 341 341 340 340 339 338 337 336 335 334 333 332 330 329 328 326 325 324 324 323 323 322 322 322 324 329 332 336 338 338 341 344 343 345 345 345 345 346 347 346 345 346 345
338 341 344 345 346 341 343 345 350 350 349 349 350 349 349 349 348 348 348 348 348 348 348 348 347 347 348 347 347 346 345 343 342 340 338 337 338 337 339 338 338 340 340 339 338 337 337 336 336 335 334 333 331 329 327 326 325 324 324 323 322 322 321 320 319 323 324 327 330 334 335 333 340 342 341 341 345 345 344 340 344 345 347 346 345
338 340 342 344 346 340 344 347 348 348 349 349 350 349 348 349 349 348 347 348 348 348 348 348 347 347 347 347 346 345 343 342 341 339 338 337 337 336 336 337 337 338 337 336 336 336 336 335 335 334 332 331 329 327 325 324 323 323 323 321 320 320 319 318 319 320 324 327 330 332 334 333 341 341 341 341 344 345 343 342 344 346 345 345 345
337 340 341 342 340 338 343 346 347 348 348 349 349 349 349 348 348 348 348 348 348 348 348 348 347 347 347 346 345 344 343 341 340 338 336 335 335 336 336 336 337 336 335 334 334 334 334 334 333 331 330 328 327 326 325 323 322 321 320 320 320 318 317 316 319 320 325 326 329 331 335 336 338 338 340 340 341 343 345 345 345 345 345 345 345
337 338 340 342 345 337 341 345 346 347 348 349 348 348 348 348 348 348 347 348 348 348 348 347 347 346 345 345 344 343 341 340 339 337 335 334 334 334 335 335 335 335 334 333 332 333 333 332 330 329 328 327 325 325 323 322 321 320 319 318 318 316 315 315 318 321 323 327 328 331 334 337 338 337 337 339 340 340 341 343 343 344 343 342 342
337 338 340 342 343 337 336 340 343 346 348 348 348 347 347 348 347 348 348 348 348 348 348 347 346 345 344 344 343 342 341 339 338 334 332 332 332 333 333 334 334 334 333 332 332 332 332 330 329 328 327 326 325 324 322 321 320 319 318 316 315 314 312 315 321 321 323 325 327 330 332 333 335 335 335 337 338 338 338 339 339 340 340 340 340
336 339 340 342 342 344 332 336 340 342 345 347 347 347 347 347 348 347 347 348 348 347 346 346 344 344 344 343 341 339 338 337 336 333 332 332 332 331 331 331 333 332 332 331 331 330 330 329 328 327 326 325 324 323 321 320 319 317 316 315 314 312 312 314 318 319 321 323 326 328 332 332 333 333 334 334 336 336 336 336 337 337 337 337 338
338 339 340 340 341 343 343 334 334 335 340 343 344 345 346 347 347 347 347 347 346 345 345 345 344 343 342 341 339 338 337 337 335 333 332 331 331 331 330 331 330 330 331 331 331 330 329 328 327 326 325 324 323 321 320 319 318 316 314 313 312 311 309 314 317 318 319 321 324 327 329 331 331 332 333 333 333 334 334 334 334 334 335 335 335
336 338 337 339 341 341 342 342 339 330 332 334 338 340 341 344 345 345 344 345 345 345 345 344 344 343 342 341 340 339 339 337 334 332 332 331 330 330 330 330 330 330 331 331 330 329 329 327 326 325 324 322 322 320 319 317 316 315 313 312 310 309 308 312 315 317 318 320 323 326 328 330 329 330 331 331 331 331 332 332 332 333 333 333 334
335 336 335 338 339 340 340 342 342 341 343 335 330 334 338 340 341 342 342 341 342 342 343 343 342 342 339 337 336 336 337 336 333 331 331 330 330 330 329 330 330 330 330 329 329 328 327 327 325 324 323 322 320 318 317 316 314 312 311 309 308 307 307 311 313 315 317 319 321 325 326 325 328 329 330 330 330 330 330 330 331 332 332 332 333
333 333 335 337 338 339 338 341 341 341 342 342 342 340 330 334 337 338 339 339 339 339 340 339 336 337 335 333 331 329 328 329 330 332 331 331 330 330 328 329 329 329 328 328 328 327 327 326 325 323 322 320 319 318 316 314 312 311 309 307 305 304 306 309 310 313 315 317 320 323 323 324 327 328 329 328 328 328 328 329 330 330 331 331 331
332 333 334 336 337 337 339 339 340 340 341 341 341 342 332 327 331 333 334 336 336 337 336 334 331 329 329 327 324 327 324 327 322 328 327 330 328 326 328 328 328 328 328 328 327 326 326 325 323 322 321 319 317 315 313 312 311 309 308 305 304 306 306 305 309 310 311 313 319 321 320 323 326 327 327 327 327 327 327 328 328 328 329 330 330
328 330 332 333 336 336 337 338 338 339 340 340 340 341 340 327 327 326 328 331 333 332 333 327 323 321 323 319 320 330 331 330 330 329 322 328 322 321 327 328 328 328 327 326 326 326 326 324 323 321 319 317 315 313 311 310 309 308 305 303 304 305 305 306 307 307 310 313 317 318 319 321 324 326 326 325 325 325 326 326 327 328 328 328 328
326 327 330 332 333 335 336 336 337 338 339 339 339 340 341 332 338 339 337 334 328 326 332 336 326 334 321 326 331 330 330 330 329 324 327 327 325 319 324 329 328 326 325 325 325 325 324 324 322 320 318 314 311 311 307 306 305 305 302 303 305 304 305 305 305 305 309 312 315 316 318 320 323 325 325 324 323 323 324 324 325 326 327 326 326
325 327 328 330 332 333 335 334 336 337 337 338 337 338 337 337 337 338 338 330 333 334 336 334 334 334 332 331 330 330 330 329 328 326 326 320 324 318 323 326 327 326 325 324 323 323 322 321 318 315 312 307 308 307 306 305 302 301 304 305 304 304 305 305 304 305 307 311 314 313 317 319 321 323 324 324 323 323 324 324 325 325 325 326 326
324 327 328 329 329 330 332 333 334 335 335 336 336 336 336 336 335 337 337 336 337 336 336 335 334 334 333 331 330 330 329 328 317 315 318 325 323 317 320 323 324 322 322 322 321 320 318 316 313 309 305 308 306 304 304 304 303 304 304 303 303 304 304 304 303 304 305 308 312 311 315 318 320 322 323 323 322 323 324 325 325 325 325 325 325
325 327 328 327 328 329 330 331 333 334 334 334 334 334 335 335 335 335 335 335 334 335 335 334 334 333 331 330 329 327 328 327 324 324 324 323 323 323 325 325 324 323 318 321 320 319 316 313 307 304 305 306 304 304 304 303 303 303 303 302 302 303 303 303 303 302 304 307 310 310 313 317 319 321 322 323 322 323 324 324 324 324 324 324 325
325 324 326 326 327 328 329 330 331 331 332 333 332 332 332 333 333 334 334 334 334 333 333 332 331 331 330 328 326 326 326 325 324 323 323 322 322 321 322 324 323 322 320 320 318 316 312 307 305 304 303 304 304 304 304 302 302 302 301 303 302 302 302 302 302 302 303 306 309 308 311 315 318 320 321 323 323 323 323 323 324 324 324 323 323
322 322 325 326 327 327 328 329 329 329 331 332 332 332 331 332 333 333 332 332 333 331 330 330 329 329 328 326 325 324 324 323 322 321 321 321 320 321 321 321 320 318 318 316 313 310 306 303 303 304 303 303 303 303 303 304 303 302 302 302 302 302 302 302 302 302 303 305 307 306 310 313 317 319 320 322 322 322 323 324 324 323 323 323 323
322 322 323 325 326 326 327 328 328 328 329 330 330 330 331 331 332 329 331 330 330 330 329 328 328 325 325 324 324 324 323 321 320 319 319 319 319 319 319 319 318 316 314 313 310 306 304 304 305 304 303 303 303 302 301 301 302 303 302 302 302 301 302 301 301 303 303 304 307 306 309 312 315 319 320 321 322 323 323 322 322 323 322 322 322
318 320 322 323 325 326 326 326 327 327 328 328 327 328 330 330 330 330 329 327 329 329 329 328 325 324 323 322 323 322 322 321 319 318 318 317 317 317 316 316 315 313 311 309 307 304 303 303 303 302 302 301 301 301 301 301 301 301 301 301 302 301 301 301 302 302 303 303 305 305 307 311 314 317 319 320 321 322 322 322 322 322 322 322 323
316 319 321 322 324 325 325 325 326 327 327 327 327 326 328 328 329 329 329 328 328 329 328 325 325 322 320 320 321 322 321 319 318 316 315 315 314 314 314 314 312 310 308 307 304 303 302 302 303 303 302 301 300 300 300 300 300 300 301 301 301 300 301 301 302 301 302 303 304 305 304 309 313 316 317 318 320 320 321 320 321 321 321 322 321
315 316 318 320 322 323 324 325 325 326 327 326 326 326 327 327 328 328 328 327 328 328 326 325 324 321 320 319 319 320 319 319 317 315 313 313 312 312 312 311 310 308 307 305 303 303 303 302 302 301 300 300 300 300 299 299 300 299 300 301 300 300 300 301 301 301 301 302 303 306 307 306 310 314 316 317 318 319 319 319 319 320 321 320 320
314 315 317 319 320 321 323 324 325 325 325 325 324 324 326 327 327 327 327 327 327 326 326 324 321 321 319 317 317 317 317 316 315 313 312 311 310 310 310 309 308 307 305 304 302 303 303 304 304 302 302 301 299 299 300 298 299 299 300 300 300 300 300 300 300 301 301 302 303 304 307 309 307 308 311 315 317 317 318 318 318 318 319 319 319
315 315 316 318 318 320 320 322 324 324 324 324 324 324 325 326 325 326 326 326 325 325 324 323 322 321 318 317 316 315 314 314 313 312 310 310 309 308 307 307 307 305 304 304 303 303 302 301 301 301 300 300 299 299 300 299 299 298 299 299 299 300 300 300 300 300 301 301 302 302 304 307 309 305 305 307 312 315 316 317 317 317 318 317 318
314 315 315 315 316 318 320 321 322 323 323 324 324 323 324 325 325 325 325 325 324 323 322 323 321 319 317 316 315 314 312 313 312 311 309 308 307 306 306 305 305 304 303 303 301 300 299 300 299 298 298 298 298 297 296 298 298 298 298 299 299 299 299 299 299 300 300 300 301 302 301 302 304 306 304 302 304 308 313 315 315 316 316 316 316
312 313 313 314 314 316 318 318 320 322 322 322 322 323 323 324 323 324 324 323 323 322 321 321 319 318 317 315 314 312 311 311 310 309 307 307 305 305 304 303 304 303 301 301 300 300 301 300 298 297 297 297 298 298 298 297 297 298 298 298 298 299 299 299 299 299 299 300 300 301 300 300 300 301 302 302 300 300 305 310 312 313 313 314 314
310 311 313 313 312 314 316 317 319 320 321 321 322 323 322 323 323 319 322 322 321 320 320 319 319 317 315 314 313 312 310 309 309 308 306 305 304 303 303 302 303 301 301 300 301 300 300 300 299 300 296 297 297 296 298 297 298 298 298 298 298 298 298 298 298 298 299 299 299 299 299 299 299 298 298 299 299 298 299 303 307 309 310 310 312
310 310 311 312 312 312 312 314 316 318 319 321 321 322 321 321 321 321 321 320 320 319 319 318 317 316 314 313 311 310 309 308 308 307 306 304 303 303 302 302 301 300 300 300 299 300 300 300 299 299 298 296 296 296 297 297 297 297 297 298 298 297 297 297 297 298 299 298 298 298 297 297 296 297 297 297 297 297 296 298 301 303 305 308 310
310 310 311 311 311 311 312 313 315 317 318 319 320 320 320 320 320 319 318 318 318 318 317 316 315 315 313 311 310 309 308 308 307 306 305 304 303 302 302 301 300 300 300 299 299 300 300 299 297 298 298 296 295 296 295 296 297 297 296 297 297 297 297 297 297 296 297 297 297 297 296 296 297 297 296 297 297 297 297 296 296 298 299 304 308
308 308 309 310 311 311 311 311 312 314 316 318 319 319 319 319 319 318 316 316 316 316 316 314 314 314 312 311 309 308 307 307 306 305 304 303 302 302 301 300 300 299 299 299 299 299 299 299 298 296 297 297 296 296 296 297 297 296 296 295 296 296 297 296 296 297 296 297 296 296 296 295 296 296 296 296 295 296 296 297 297 298 298 299 304
307 306 307 309 310 310 310 310 310 311 314 315 317 316 316 315 314 314 313 313 314 313 314 313 313 312 311 310 309 307 306 305 305 304 303 302 301 301 300 300 299 299 298 298 298 297 298 298 297 296 295 296 298 298 297 295 295 295 294 294 295 295 295 295 296 296 296 296 295 294 294 295 295 295 295 295 295 295 295 296 296 296 296 297 300
305 305 305 307 308 308 309 308 309 309 310 312 313 314 313 313 313 312 311 312 311 312 311 312 311 310 309 309 308 307 306 304 304 303 302 301 301 300 300 299 299 298 298 298 299 298 299 298 297 296 295 293 294 297 297 297 294 293 293 293 293 294 294 294 293 294 294 294 294 293 293 294 294 294 294 294 294 295 295 295 295 295 296 297 299
307 305 305 305 307 307 308 309 308 307 308 310 311 312 314 313 312 312 311 311 310 308 308 309 309 309 308 308 307 307 305 304 303 303 302 301 300 299 299 298 297 297 298 299 299 298 298 297 297 295 296 294 293 296 296 295 293 292 290 290 291 292 292 292 292 292 294 294 294 294 294 293 293 293 293 293 293 294 294 294 295 295 296 297 298
306 305 305 304 305 306 307 308 308 307 307 308 310 311 312 313 312 311 310 310 310 309 309 308 307 306 306 306 306 306 305 304 303 302 301 301 300 299 298 297 297 297 297 298 298 297 297 297 296 294 293 295 294 296 296 297 293 295 295 292 289 289 290 290 292 291 292 293 293 293 293 293 292 293 293 293 293 293 294 294 294 295 295 296 297
304 303 302 303 303 304 305 306 307 307 307 307 308 310 311 311 311 308 308 308 307 307 306 305 305 305 304 304 304 304 304 304 303 302 301 301 300 299 298 297 297 298 297 296 297 297 297 296 295 295 295 293 293 292 296 297 297 295 290 293 292 292 288 288 289 290 292 292 292 292 292 292 292 293 293 292 292 292 293 294 293 294 295 296 297
301 301 301 301 301 303 304 305 306 306 306 306 306 308 308 307 307 306 305 305 304 303 303 303 303 303 303 302 302 303 303 303 303 302 300 300 300 299 298 297 297 297 297 296 296 296 297 297 296 295 294 293 292 292 293 296 296 299 295 291 289 289 292 293 290 290 290 290 291 291 292 292 292 292 292 291 292 292 292 293 293 294 294 295 296
298 299 300 301 301 302 302 304 304 305 304 305 305 305 305 305 304 303 302 301 301 301 300 301 301 300 300 302 301 301 302 302 302 302 301 300 300 300 299 298 297 296 296 296 297 297 297 296 296 296 295 295 294 292 291 294 295 297 296 297 298 294 293 293 291 287 290 291 292 291 291 291 292 291 292 291 291 291 292 292 293 293 294 295 295
296 299 299 300 300 301 302 303 303 304 304 304 304 304 304 304 303 303 303 302 301 302 302 302 301 301 302 300 300 300 301 301 301 301 301 300 300 300 299 298 297 297 296 296 296 296 296 296 296 295 295 296 296 292 292 291 293 292 294 295 296 291 298 292 290 293 287 289 291 290 290 291 291 291 291 291 291 291 291 292 292 293 293 294 294
296 297 297 298 299 300 301 301 302 302 303 303 303 303 302 303 302 302 302 302 302 302 301 301 301 301 300 300 300 299 300 300 300 300 300 300 299 299 299 299 297 297 295 295 295 296 296 297 296 296 296 296 297 294 293 293 290 291 293 292 291 293 296 296 298 295 294 289 288 290 291 290 290 291 291 290 290 291 291 291 292 292 292 293 294
296 295 296 297 298 299 300 301 301 301 301 301 302 302 302 302 302 302 301 302 302 302 302 301 300 300 299 299 299 299 298 299 299 299 299 299 299 299 299 298 298 297 295 296 296 296 296 295 295 294 295 295 296 296 295 293 292 293 291 291 293 293 293 295 294 296 294 293 291 288 288 289 289 290 290 291 290 291 291 291 291 292 292 293 293
295 296 296 296 297 298 298 298 298 299 300 300 301 301 302 301 301 301 301 301 301 301 301 300 300 300 298 298 298 298 297 297 298 299 299 299 299 298 298 298 298 297 295 295 296 296 296 296 295 295 295 295 295 296 297 295 294 296 293 293 291 291 292 291 292 293 292 295 293 290 290 287 285 288 290 289 289 290 290 290 290 291 292 293 292
294 295 295 295 296 296 297 296 296 298 299 299 300 300 301 301 300 301 300 300 301 301 299 299 299 299 298 298 298 297 297 297 297 297 298 298 298 298 298 298 298 297 295 295 295 295 295 295 295 295 295 294 294 294 295 297 295 297 294 294 292 292 292 291 291 292 292 290 290 292 291 290 289 288 288 290 289 290 290 290 290 290 292 292 292
Wind_Speed
10 8 11 15 14 14 17 16 15 14 14 13 13 12 12 12 11 11 10 10 9 9 8 9 9 9 9 9 9 9 9 9 9 8 7 6 6 6 6 5 6 6 6 6 6 7 8 9 9 11 12 12 13 13 13 12 12 12 11 11 11 11 11 12 11 11 10 10 11 11 11 8 9 9 10 10 10 9 8 6 7 7 7 9 11
15 11 10 14 14 15 17 17 16 16 15 14 13 13 12 12 11 11 11 11 11 11 10 9 9 9 9 9 9 9 9 9 8 8 8 7 6 6 5 5 5 6 6 6 7 8 8 9 11 11 12 12 11 11 11 11 11 11 11 11 10 10 10 10 10 9 9 9 8 8 10 11 10 10 11 10 10 8 7 7 10 6 7 9 10
13 11 10 14 15 13 16 17 17 17 16 15 14 13 13 12 11 12 11 11 11 11 10 10 9 9 9 9 9 9 9 8 8 7 8 7 6 5 5 5 5 4 7 7 8 9 10 10 10 11 11 11 11 11 10 10 10 10 11 10 10 9 9 9 9 9 8 8 6 3 6 11 9 9 10 10 10 9 7 8 8 8 7 10 9
13 10 10 13 14 13 14 16 16 16 16 15 14 14 13 13 12 11 11 11 10 10 10 10 10 10 9 9 9 9 9 9 9 9 8 8 7 7 5 5 6 7 8 8 9 10 10 9 10 11 11 11 11 10 10 10 10 10 10 10 9 9 9 8 8 7 7 6 5 3 5 7 8 7 9 9 9 8 6 7 8 10 10 10 11
12 10 10 12 15 13 14 14 16 16 15 15 15 14 14 13 12 11 11 10 10 10 10 10 10 10 9 9 9 9 9 9 9 9 9 9 8 7 6 6 6 6 7 9 9 10 10 8 8 10 11 11 11 10 10 9 10 10 9 9 9 8 8 8 7 6 5 4 5 3 5 6 6 6 7 9 9 6 3 6 8 9 8 9 11
9 9 10 12 14 15 12 14 16 16 16 15 15 14 14 13 12 11 11 11 10 10 10 10 10 10 10 10 10 10 10 10 10 10 10 9 8 7 7 7 7 7 8 9 9 9 8 8 9 10 11 11 11 10 10 9 9 9 9 9 8 8 8 7 6 5 3 1 3 2 4 4 5 5 5 7 7 6 4 7 8 8 8 7 9
9 8 10 11 11 15 12 14 16 17 17 16 15 14 14 14 13 12 12 11 11 11 11 11 11 10 10 10 11 10 11 10 10 9 10 8 8 7 7 8 9 9 8 8 8 8 7 7 9 10 10 11 11 10 10 9 9 9 9 8 8 8 8 7 6 5 4 5 2 2 3 3 3 4 7 6 4 6 5 7 7 8 8 8 8
8 7 10 10 11 13 11 13 14 17 17 16 14 14 14 14 13 13 13 12 12 11 11 11 11 11 10 10 11 11 11 10 9 8 8 8 7 7 6 7 8 8 7 7 7 7 6 7 9 9 10 11 10 10 10 9 9 9 9 8 8 8 8 7 6 5 6 1 2 2 3 2 3 2 7 7 6 5 5 5 6 7 7 6 5
9 10 10 10 11 11 11 11 13 15 17 16 15 15 14 14 13 13 13 13 12 12 12 12 12 12 11 12 12 11 10 10 9 8 6 6 5 5 5 4 6 7 6 6 6 6 5 7 9 10 10 10 10 10 10 9 9 9 9 9 9 8 8 7 6 6 0 3 2 3 3 2 1 2 4 5 5 6 5 2 9 8 8 5 3
9 10 9 9 11 10 11 10 12 13 17 16 14 14 15 14 13 14 13 13 12 12 12 12 11 11 12 12 12 12 11 10 9 8 6 4 3 1 3 1 2 7 7 6 5 5 4 7 9 10 11 11 11 10 10 9 10 9 9 9 9 9 8 6 4 5 3 3 4 4 4 6 2 1 4 3 6 6 4 6 8 8 6 3 7
10 10 9 9 12 11 11 13 11 10 13 14 12 14 14 14 13 14 14 13 13 13 12 11 12 12 12 12 12 11 10 9 8 8 8 6 4 2 0 1 3 6 6 5 5 6 6 7 10 10 10 11 10 10 10 10 9 9 9 9 9 8 8 7 5 4 4 4 4 3 3 5 1 1 6 6 8 7 6 3 1 3 5 7 8
11 10 9 10 7 10 10 12 11 12 11 12 13 14 14 14 14 14 15 14 14 13 13 12 12 13 13 13 12 11 10 8 8 7 5 6 6 5 5 4 3 3 5 5 6 6 6 9 10 10 10 10 10 10 10 10 9 9 9 9 8 8 7 6 4 4 4 4 5 4 4 4 3 6 5 7 7 8 6 5 7 6 7 9 12
11 11 10 11 11 9 10 11 10 12 12 12 14 14 14 14 14 15 14 14 13 13 13 13 13 14 13 12 11 10 9 9 7 7 8 6 7 7 6 6 6 5 6 6 7 7 7 9 9 10 10 11 10 10 10 10 10 9 9 8 8 7 6 5 4 4 4 4 4 4 4 5 5 8 3 6 8 8 7 8 8 10 10 9 10
11 11 10 12 13 10 10 11 10 12 12 12 13 14 14 13 14 14 14 12 13 15 15 15 14 13 11 10 11 11 11 10 10 7 5 6 8 8 7 7 6 6 7 8 8 8 9 9 10 10 10 11 11 10 10 10 10 10 9 9 8 6 3 4 3 4 4 4 4 5 5 5 6 7 3 6 6 7 7 7 6 5 6 6 9
10 11 11 12 11 12 10 10 9 12 12 13 13 13 14 14 15 14 15 13 14 12 12 12 12 12 12 12 10 8 7 7 7 6 7 8 10 9 9 8 8 8 8 8 8 8 9 9 10 10 10 10 10 10 10 11 11 10 10 9 9 8 7 3 2 4 4 3 3 4 5 6 9 6 5 4 6 6 5 5 5 5 6 8 8
8 10 10 11 12 13 11 8 9 10 11 12 13 12 12 13 13 12 13 14 12 12 10 10 10 9 8 7 8 10 8 9 9 9 9 9 8 8 7 8 8 8 8 8 9 9 9 10 10 10 10 10 10 10 11 11 11 11 11 10 9 9 8 6 3 3 3 3 3 3 4 6 10 6 5 5 4 5 5 4 3 5 6 7 8
8 10 12 13 13 14 14 13 10 9 9 10 11 11 11 11 12 11 11 11 10 11 12 11 10 10 10 10 10 9 8 10 9 10 10 9 9 9 8 9 9 8 9 9 9 10 10 10 10 10 10 11 11 11 11 11 11 11 10 10 9 9 8 6 4 4 4 4 4 3 4 5 8 5 5 4 4 4 4 4 3 4 6 7 7
9 11 13 13 14 14 14 14 13 10 11 8 9 10 10 11 11 11 10 10 10 9 9 10 9 11 10 7 5 6 9 9 9 9 9 9 9 9 9 9 9 9 9 9 9 10 10 10 10 10 11 11 11 11 11 11 11 11 10 9 9 8 7 5 4 4 4 4 3 4 5 9 7 5 4 4 4 4 3 3 5 6 6 6 6
11 13 13 14 14 14 13 14 14 15 15 12 10 10 11 9 9 10 10 11 10 9 10 9 8 8 7 6 7 8 8 9 7 6 7 7 7 7 9 10 10 10 10 10 10 10 10 10 11 11 11 11 11 11 11 11 11 10 9 8 7 5 3 4 5 4 3 3 3 4 6 10 5 5 4 5 5 3 3 4 6 5 5 6 6
10 12 14 14 13 14 12 12 13 15 14 14 12 12 10 10 9 8 9 10 11 9 10 9 9 9 9 10 10 8 8 7 8 6 6 7 7 8 8 9 10 10 10 11 10 10 10 10 10 11 11 11 11 11 11 10 10 9 8 7 4 2 3 4 4 4 3 4 4 4 8 9 7 5 5 5 4 4 4 5 5 5 5 5 6
8 13 14 14 15 15 14 11 13 14 14 13 10 10 10 10 8 8 9 10 11 10 9 9 9 9 10 10 10 8 7 7 7 8 6 8 8 6 7 9 10 10 11 10 10 10 10 10 11 11 11 12 12 12 11 10 9 8 7 5 1 4 4 4 3 3 3 3 3 5 10 8 6 5 5 5 4 4 4 4 4 4 5 5 5
9 9 14 15 15 15 14 14 10 13 12 10 7 6 7 9 12 10 9 9 8 8 8 9 10 8 10 9 8 8 7 8 8 10 8 8 7 6 6 8 11 11 10 11 11 11 11 11 11 11 11 11 8 5 6 8 8 8 6 3 3 4 4 4 3 3 3 3 3 6 9 7 6 4 4 4 4 4 4 3 3 4 5 5 5
9 10 10 16 16 15 14 15 13 12 13 11 6 7 9 9 11 11 9 10 10 10 10 10 10 10 10 10 9 9 9 10 7 7 6 8 8 7 5 7 10 8 10 10 10 10 10 10 10 10 10 7 3 3 4 3 4 3 1 3 4 4 4 3 3 3 3 3 2 8 8 6 5 4 3 3 3 3 3 4 4 4 5 5 6
11 10 9 10 13 14 14 13 14 14 12 11 9 9 10 10 10 10 9 9 10 9 11 10 9 10 9 9 9 8 8 8 8 8 6 7 6 6 5 6 8 7 9 8 10 9 11 10 10 10 7 3 3 3 3 3 2 2 2 2 3 3 2 2 2 2 2 3 3 8 7 5 4 3 2 2 3 3 4 4 4 4 5 5 6
9 8 8 10 15 15 12 13 13 14 12 11 10 11 11 10 10 10 10 10 12 9 9 9 8 9 9 9 8 7 7 7 8 8 8 8 8 9 8 8 8 8 10 7 7 8 7 6 5 5 3 3 3 3 3 3 3 2 2 2 3 2 2 2 2 2 1 1 3 8 8 5 4 3 1 2 3 3 4 4 4 4 5 5 6
7 9 12 11 13 14 14 12 12 13 13 12 11 11 11 11 11 11 11 10 12 9 9 8 8 9 9 8 8 8 9 8 9 9 9 9 9 9 9 8 8 8 8 6 6 7 5 5 5 5 4 3 3 3 2 3 3 2 2 2 2 2 2 2 1 1 1 1 3 7 7 6 4 3 0 1 3 3 4 5 5 5 6 5 6
9 11 10 10 12 14 15 13 13 13 14 13 11 10 11 11 11 11 11 11 10 10 9 9 9 9 9 9 9 9 9 9 9 10 10 9 9 8 8 8 8 7 8 6 6 5 5 5 5 5 4 4 4 3 3 3 3 3 3 2 2 2 2 2 1 1 1 1 3 6 6 5 5 2 1 2 3 4 5 6 6 6 6 6 6
9 10 10 11 12 16 15 15 14 15 15 15 14 14 11 12 12 11 12 12 10 10 10 9 8 9 9 9 10 9 10 10 10 10 10 9 9 9 8 7 7 7 6 6 6 5 5 5 5 5 5 4 4 4 3 3 3 3 3 3 2 2 2 1 2 1 1 1 2 4 7 5 5 4 1 3 4 5 5 5 5 6 6 6 6
12 12 10 11 12 12 15 17 16 16 13 15 18 17 13 12 12 11 12 12 11 11 10 9 8 9 9 10 10 10 10 10 10 10 9 10 9 8 7 8 7 6 6 6 6 6 5 5 5 5 5 5 4 4 3 3 2 2 2 3 2 2 2 2 2 1 1 1 1 4 8 7 5 4 3 2 3 4 5 5 5 6 7 7 8
15 10 10 10 9 12 15 18 17 14 14 14 14 15 15 13 13 13 12 12 12 11 11 9 9 9 9 10 11 11 11 11 11 10 10 10 9 8 8 8 7 6 7 6 6 6 6 5 5 5 5 5 4 4 3 3 3 2 2 2 2 2 2 1 2 1 1 1 2 4 6 8 6 5 5 3 3 3 4 5 4 5 6 7 7
12 13 12 10 10 12 14 15 15 14 13 14 13 14 13 13 13 12 12 12 12 11 10 10 9 9 10 11 11 11 10 11 10 11 10 9 9 9 9 8 8 7 7 6 6 6 5 5 6 6 5 5 4 4 3 4 3 2 2 2 2 2 2 2 2 2 2 2 2 3 4 6 10 9 5 6 6 5 4 4 4 4 5 5 5
12 15 13 11 11 14 14 15 16 15 14 15 15 15 14 13 13 12 12 12 12 11 11 11 10 10 10 10 11 11 11 10 11 10 11 10 10 10 9 9 9 8 7 6 6 5 5 4 5 5 5 5 5 4 3 4 4 3 3 3 2 2 2 2 2 2 2 2 3 3 3 4 9 13 14 8 8 6 6 7 5 5 6 5 5
10 13 12 11 14 14 14 15 16 16 18 18 15 15 13 12 12 13 12 11 11 11 11 11 11 10 9 11 11 12 11 11 10 11 10 10 10 10 9 9 8 8 8 8 7 6 5 5 5 5 5 5 5 5 3 3 4 3 3 3 3 2 2 3 3 3 3 3 3 3 4 4 5 9 13 15 13 8 9 9 8 6 7 6 6
9 8 10 13 12 9 10 10 14 17 18 16 15 12 14 13 12 12 12 11 11 11 12 11 11 10 10 11 11 11 11 11 10 10 10 9 9 9 9 9 8 9 7 7 7 7 6 7 7 6 6 6 6 6 5 5 4 4 3 3 3 3 3 3 3 3 3 3 3 3 3 3 3 4 5 11 14 15 11 10 10 9 7 6 8
10 10 12 15 13 11 9 10 13 17 16 17 16 15 14 13 12 12 12 12 12 12 11 10 10 10 10 10 11 11 12 11 10 10 10 9 9 9 9 9 8 8 8 8 8 7 7 8 7 7 6 6 6 5 5 5 5 4 4 3 3 3 3 3 3 3 3 3 3 3 3 3 3 3 3 4 7 13 13 13 12 10 9 8 7
13 13 12 10 13 14 13 14 13 18 16 18 17 15 13 13 11 12 11 12 11 11 11 11 10 10 10 10 12 11 11 11 10 10 10 9 9 10 9 8 9 8 8 8 8 8 8 7 7 7 8 6 6 6 4 4 4 4 3 3 3 3 3 3 3 3 3 3 3 3 3 3 3 3 2 3 4 7 11 12 13 13 11 9 8
13 12 12 11 12 14 13 16 17 19 18 17 16 14 12 12 12 11 12 11 11 11 10 10 10 10 10 10 11 11 12 11 11 11 10 10 9 8 8 8 9 8 8 8 8 8 8 7 6 6 6 7 7 7 5 4 4 4 3 3 3 3 3 3 4 3 3 4 4 4 4 4 4 2 2 3 3 4 7 10 11 14 14 10 9
12 12 12 12 13 12 12 14 14 14 13 13 14 12 11 10 9 9 10 10 12 10 10 10 11 10 10 11 11 12 12 12 12 11 10 9 9 9 8 9 9 8 8 8 8 7 7 7 8 6 6 7 7 7 6 5 4 4 3 3 3 2 3 3 3 3 3 3 3 4 3 3 3 3 3 3 3 2 3 5 7 11 14 12 11
9 11 12 12 10 10 10 11 12 11 12 11 10 10 9 9 8 8 8 10 9 9 10 10 10 10 10 11 11 12 11 12 13 12 11 10 10 9 8 10 9 9 8 9 7 7 7 7 8 8 5 5 6 7 6 6 5 4 4 4 2 2 2 3 3 2 3 3 3 3 2 3 3 3 3 2 2 3 3 2 2 3 6 12 11
8 7 9 9 10 9 8 8 10 11 9 9 8 9 8 9 9 8 9 10 9 10 10 10 9 10 10 11 11 12 11 12 13 13 12 11 11 10 10 10 10 9 9 10 9 9 10 10 9 10 9 4 2 5 7 8 7 6 5 4 3 3 3 3 2 3 3 3 3 2 3 2 2 3 3 2 3 3 2 2 3 3 4 8 10
5 7 6 6 7 8 7 9 7 10 9 9 9 10 10 9 9 10 11 9 10 10 10 10 9 10 10 11 11 11 11 12 13 13 13 12 11 10 10 10 10 10 9 10 10 10 9 9 9 8 10 9 6 6 7 8 9 6 4 4 3 3 3 2 3 3 3 3 2 3 2 2 3 3 2 2 3 2 2 2 3 3 3 4 6
10 5 4 5 5 6 8 7 5 8 9 9 9 9 10 9 9 10 9 9 9 10 10 10 10 8 9 10 10 11 11 12 11 12 12 12 12 10 10 10 10 10 10 8 8 8 10 9 9 8 7 9 8 9 9 10 6 7 8 5 3 3 2 2 2 3 3 2 2 3 3 3 3 3 2 3 2 2 2 2 3 3 3 3 3
10 9 9 7 6 5 6 7 6 7 8 9 8 9 8 8 8 6 7 7 6 7 8 7 8 9 8 10 10 11 11 11 11 11 11 11 10 10 11 10 11 10 10 9 9 10 10 12 13 11 10 7 6 7 10 10 7 7 7 7 5 5 4 4 3 3 4 3 3 3 3 3 3 2 2 2 2 2 2 3 3 3 3 3 4
11 10 10 8 5 4 5 6 6 6 6 8 8 7 6 5 6 2 3 5 4 5 5 4 6 7 8 9 9 10 11 11 12 12 10 11 12 11 10 11 12 11 11 11 11 12 11 11 11 11 11 10 8 9 9 7 4 11 7 5 6 5 4 8 8 6 5 4 4 4 3 2 2 1 1 2 2 2 3 3 3 3 3 3 4
13 12 11 9 6 8 6 5 5 5 6 6 8 7 4 4 4 1 0 2 2 4 5 8 7 7 7 7 9 9 10 10 10 12 11 12 12 11 11 11 12 12 11 11 11 12 12 11 13 11 13 12 11 9 9 8 8 4 3 6 3 3 6 4 10 5 6 5 5 4 3 3 2 2 2 2 2 2 3 3 3 3 3 4 4
14 13 11 11 11 9 8 6 3 3 4 4 6 6 6 6 5 6 7 7 8 8 9 9 7 9 10 7 8 9 9 9 9 10 12 11 12 12 12 12 12 11 11 11 10 9 11 12 13 12 13 11 11 11 10 8 7 6 5 4 2 1 4 7 8 5 7 6 5 5 5 4 2 2 2 2 2 3 3 3 3 3 3 3 4
15 12 12 13 13 11 9 7 4 2 1 2 5 5 5 6 7 8 8 8 8 6 6 6 7 6 7 8 8 9 11 12 11 11 12 11 11 11 12 12 12 12 11 11 11 12 11 11 11 11 12 11 10 11 13 11 6 6 5 4 2 2 1 10 7 6 5 6 6 6 6 5 4 3 3 3 3 4 3 3 4 4 3 3 4
14 13 13 14 16 14 11 8 5 3 2 1 4 4 6 6 6 7 6 7 7 6 3 5 4 6 7 8 8 8 10 10 10 11 11 12 11 11 11 11 11 12 11 12 12 11 10 9 11 12 10 11 11 11 11 11 13 9 8 6 4 1 3 4 3 6 4 7 7 5 4 5 5 4 4 4 4 4 5 4 4 4 4 4 3
16 16 15 14 14 13 11 9 7 6 4 2 1 3 4 4 5 6 7 7 6 6 3 3 4 4 7 7 8 8 8 10 10 10 11 12 11 11 11 11 11 11 9 10 10 11 14 14 13 12 12 11 10 10 10 11 12 9 9 6 4 4 3 2 2 2 4 6 6 8 7 5 4 5 5 4 4 4 4 5 4 4 4 4 3
15 16 16 15 14 12 12 12 11 8 7 4 1 1 3 3 4 5 7 6 5 5 5 4 4 4 6 8 7 7 7 9 10 11 11 12 12 12 11 13 12 10 9 11 10 11 12 12 13 14 13 13 11 10 10 10 11 8 11 8 8 6 4 4 4 4 0 2 3 7 8 10 9 7 6 6 6 5 5 5 5 4 4 4 3
17 18 17 16 15 14 13 14 13 10 10 8 6 4 3 3 4 5 7 7 7 6 6 6 5 5 6 7 7 7 7 8 8 9 11 12 12 12 11 12 12 10 10 12 12 12 12 11 11 13 13 15 12 11 9 8 11 8 11 9 11 11 11 9 9 7 7 6 4 5 6 8 7 8 7 6 6 5 6 5 6 6 5 4 4
Wind_Direction
195 169 160 154 173 178 175 179 177 174 174 174 171 171 167 163 160 159 156 156 157 155 153 151 150 147 145 141 136 134 130 130 129 124 121 116 110 109 106 109 121 113 108 105 101 98 93 104 109 101 97 89 85 78 73 77 78 77 73 67 61 58 55 53 49 42 33 31 39 42 43 62 105 103 94 85 81 69 57 38 340 71 58 65 60
170 174 165 162 172 179 177 178 178 175 174 175 175 172 169 165 164 162 159 162 161 161 160 160 157 155 152 151 146 145 141 137 132 130 126 123 120 119 120 127 126 120 118 112 107 100 107 114 105 99 90 87 86 83 81 78 78 79 75 72 67 64 60 56 52 46 44 35 30 36 42 50 94 96 90 83 78 74 62 25 16 44 67 70 66
155 165 166 164 172 176 178 178 177 176 176 175 176 174 173 170 168 166 166 166 164 164 164 165 164 162 163 161 155 152 148 143 138 135 133 129 123 116 116 98 51 125 115 112 118 117 107 103 98 98 95 92 89 87 83 79 77 75 75 72 70 67 64 58 52 50 42 35 23 17 87 67 71 92 87 82 76 68 50 45 31 47 67 63 70
158 166 166 159 174 180 179 177 178 176 177 176 176 176 175 175 174 171 170 171 171 170 169 169 169 169 167 166 159 154 151 147 142 137 134 127 117 104 108 118 97 91 117 128 119 107 102 100 102 95 94 92 88 85 79 74 71 69 68 68 69 67 66 62 56 50 41 30 12 341 72 91 88 79 92 85 78 68 54 59 55 56 65 67 63
168 165 168 165 176 180 181 177 176 177 178 178 178 178 176 179 178 174 176 176 177 178 176 177 175 174 171 170 161 158 153 148 143 139 136 132 124 120 114 117 121 118 125 122 115 108 103 105 105 99 94 90 85 81 78 74 69 65 61 59 60 63 64 64 59 51 41 28 356 298 79 94 90 74 95 90 81 66 78 80 67 62 61 69 70
173 168 170 170 178 177 184 178 178 178 179 181 181 179 179 179 179 184 179 181 183 180 182 181 180 177 174 171 166 160 155 147 145 138 134 131 127 122 122 125 127 127 124 118 108 104 104 109 109 101 97 94 92 87 84 81 76 70 60 55 54 55 55 52 51 46 39 333 263 85 83 81 86 86 96 92 75 62 80 75 70 60 58 60 77
178 169 174 175 178 179 187 179 179 180 181 182 182 182 182 183 181 181 183 185 187 186 186 185 182 180 177 172 167 158 154 149 142 135 129 125 123 124 122 119 122 119 117 107 102 101 109 113 104 100 98 94 91 89 86 83 78 72 66 59 54 52 51 48 35 20 339 254 70 77 91 74 84 84 90 117 87 73 73 67 70 66 61 48 18
180 174 177 178 183 170 184 182 183 183 183 184 184 184 186 186 187 185 184 186 190 188 190 189 185 184 178 168 162 155 153 146 141 142 137 126 118 122 124 130 126 121 116 111 112 112 120 113 98 94 92 90 88 88 83 79 76 73 69 64 60 52 46 43 28 11 330 9 30 47 66 79 92 111 84 85 93 74 67 79 76 84 73 50 1
186 180 178 179 185 156 181 188 188 186 186 185 187 189 188 190 190 191 190 189 191 190 189 191 191 186 177 166 160 156 151 147 139 132 122 127 140 135 133 128 136 123 126 120 120 122 124 113 102 98 93 89 85 82 80 76 72 69 67 65 61 54 47 41 33 334 71 36 45 66 38 69 93 156 91 91 80 67 46 23 141 112 76 31 20
182 180 183 184 190 151 181 189 188 190 189 187 189 190 190 191 190 193 192 192 195 193 193 194 192 184 172 163 163 157 154 153 143 142 121 109 86 137 170 86 192 151 135 144 142 141 137 113 105 101 98 95 92 88 85 79 74 72 68 64 58 50 40 30 11 43 40 51 59 66 44 324 100 8 67 105 73 83 71 36 28 27 47 41 78
179 180 184 191 197 158 187 185 187 191 190 190 186 189 191 193 192 194 193 192 195 196 194 190 183 180 168 165 166 162 160 157 160 150 138 159 186 171 95 179 33 165 141 149 160 144 136 124 107 103 100 97 94 91 89 85 81 79 75 70 62 50 38 20 328 62 48 45 46 45 61 278 105 79 94 79 72 78 84 92 127 110 92 81 85
179 179 186 193 172 162 185 184 186 190 190 186 187 190 192 193 194 195 195 194 194 194 189 184 176 175 173 167 165 167 164 171 168 162 152 175 189 179 196 190 173 151 171 163 160 156 150 121 113 110 107 104 102 98 95 93 91 87 84 77 71 63 46 23 35 55 54 56 53 23 31 33 25 88 85 80 65 82 86 110 113 104 98 99 94
180 180 186 194 189 176 188 184 189 189 187 184 187 191 195 194 194 195 196 197 194 188 187 179 177 177 175 178 176 176 176 170 173 187 178 182 193 190 189 189 178 169 170 170 166 164 145 124 121 118 116 113 110 107 104 100 98 94 89 86 82 74 60 20 75 67 62 50 51 32 33 48 62 8 98 69 68 60 66 80 96 104 96 91 89
180 183 188 191 188 170 189 188 189 188 182 182 186 192 194 193 193 196 195 188 189 187 182 179 181 184 182 187 184 188 197 191 169 185 215 189 200 196 191 192 178 172 176 175 160 142 133 131 127 123 119 116 113 110 107 102 97 90 83 78 72 65 53 76 57 71 68 59 48 28 39 45 35 27 47 82 64 64 53 56 70 81 88 87 83
187 186 189 190 185 183 187 194 189 189 181 183 185 188 192 189 191 192 191 182 192 189 188 182 186 194 189 193 204 208 201 201 197 210 182 196 198 199 198 192 191 187 182 179 148 141 136 133 128 122 116 114 110 105 101 95 89 83 75 67 56 42 356 73 57 78 68 54 51 43 48 51 11 48 39 70 75 63 62 69 74 83 82 74 71
199 191 190 193 192 188 187 192 197 190 183 183 185 185 189 187 188 188 189 188 193 184 197 198 198 204 209 206 218 213 202 189 186 188 189 197 193 194 203 199 196 193 191 184 147 140 136 131 123 118 115 111 106 101 95 90 85 79 75 66 53 39 20 341 79 63 67 48 43 43 54 50 13 45 54 56 73 75 64 60 66 75 70 69 69
201 197 200 199 196 196 195 195 193 191 189 188 185 187 194 191 184 190 198 197 194 188 197 199 199 197 198 202 208 213 186 189 189 176 187 193 195 196 196 196 190 187 179 166 150 144 137 128 124 120 115 110 105 101 97 92 87 82 77 70 58 48 28 350 74 57 52 40 30 21 47 35 14 37 57 54 60 65 63 57 60 66 69 68 69
205 203 207 203 200 200 199 200 196 194 195 190 194 194 194 199 196 192 195 202 207 204 199 199 204 197 195 193 196 177 163 161 157 175 184 192 195 196 192 190 183 177 169 161 152 142 134 130 125 120 115 110 106 103 99 95 91 86 80 73 66 53 37 13 61 64 54 34 48 32 50 6 11 42 53 65 65 61 59 57 59 62 66 68 68
208 210 210 205 203 203 204 203 201 201 203 201 199 195 199 196 200 200 198 201 207 209 207 205 193 181 167 145 121 136 130 130 137 172 183 175 188 192 192 186 181 176 168 158 147 140 135 131 127 122 116 111 107 101 99 95 93 91 87 84 81 68 39 64 60 55 49 49 36 42 31 352 27 36 47 51 55 58 54 54 58 59 62 68 73
217 216 214 211 209 206 207 207 206 206 206 207 205 202 193 203 203 203 204 204 202 203 206 194 181 164 145 126 126 131 134 135 132 163 176 175 170 194 181 188 182 173 162 152 146 141 137 134 129 123 118 112 104 99 96 94 91 89 88 87 86 187 88 75 72 64 58 53 21 49 7 0 13 32 43 49 51 50 46 50 57 58 62 68 73
219 221 218 214 212 212 208 207 209 208 209 208 208 204 194 188 204 207 202 202 199 192 195 174 166 152 139 132 137 166 175 170 155 194 156 185 164 182 176 188 178 167 157 152 147 144 140 136 131 125 119 110 98 89 85 87 84 79 76 65 342 65 59 56 54 64 59 57 43 47 357 5 9 23 37 45 43 44 51 56 62 69 69 70 63
213 217 217 218 215 215 213 211 208 208 207 208 203 195 198 191 211 207 205 197 192 181 180 185 170 169 137 143 176 187 188 193 187 197 189 181 159 167 185 186 174 169 157 154 151 148 143 137 129 120 114 111 114 116 97 76 70 73 62 352 48 60 56 48 42 55 44 59 44 16 354 4 9 26 40 49 49 48 54 59 71 76 85 79 76
216 214 214 213 215 218 216 213 212 205 206 206 199 203 204 205 210 209 205 201 196 188 198 186 182 175 169 173 182 201 197 198 188 177 195 167 167 165 177 182 171 157 157 154 154 149 143 135 127 121 115 117 117 108 108 112 102 110 126 53 62 57 57 53 57 52 48 26 45 4 356 358 1 18 46 55 73 74 75 82 82 91 87 83 87
214 209 212 207 210 215 212 214 212 208 201 209 204 205 205 207 207 206 206 200 202 191 200 184 184 171 168 176 186 176 166 186 100 113 118 165 148 167 172 154 142 150 148 151 150 147 136 125 119 121 127 144 118 116 117 120 114 83 66 72 71 71 59 64 63 66 73 42 40 355 353 356 353 3 41 75 92 100 102 97 95 100 90 94 93
208 208 208 206 207 213 211 211 209 209 204 206 201 205 203 205 205 205 205 203 209 194 194 186 179 169 169 178 175 152 170 183 169 173 189 186 181 181 179 179 175 172 162 167 164 147 147 143 137 155 151 137 133 126 131 128 124 115 90 84 92 85 84 69 71 78 72 71 42 351 350 352 353 347 29 100 119 116 119 116 114 104 106 103 96
187 208 209 206 207 209 210 207 204 206 204 207 205 204 200 202 202 202 201 202 204 192 191 185 178 173 175 173 155 160 175 183 178 183 189 187 181 183 183 184 176 167 176 167 161 162 158 156 158 162 155 147 137 135 132 132 130 121 107 91 95 105 94 87 93 88 85 80 66 351 350 346 350 344 356 125 133 133 132 134 122 112 111 107 94
207 217 208 208 205 207 208 206 206 207 207 207 207 202 203 205 205 201 199 201 197 190 191 188 184 176 174 164 169 175 181 187 182 185 187 185 185 183 180 178 173 172 181 176 165 166 168 161 164 158 147 136 126 120 115 104 103 109 104 99 89 97 101 101 104 109 104 107 79 360 352 351 346 339 198 153 148 154 143 140 130 123 117 116 108
224 220 210 207 203 202 200 200 207 209 210 211 211 214 204 204 206 200 202 202 194 194 194 191 177 175 176 177 178 179 182 187 188 187 187 187 188 184 179 175 177 177 178 177 169 173 173 166 157 144 142 137 130 129 123 115 104 101 104 100 102 105 100 100 94 94 124 132 118 29 347 4 355 348 92 156 160 153 148 151 143 136 127 122 118
236 225 213 212 208 201 197 201 202 205 205 205 216 220 211 204 203 201 202 200 200 197 193 182 177 181 180 176 178 179 185 189 188 188 185 187 184 177 175 178 177 175 177 179 176 175 175 165 158 155 150 144 141 133 124 115 119 106 109 116 122 110 118 127 117 114 128 131 106 51 354 4 10 19 34 108 143 144 142 133 129 129 126 125 119
234 234 220 218 212 200 202 204 202 200 201 202 211 216 213 204 205 203 202 196 202 199 183 182 188 182 182 182 181 185 188 189 187 187 185 186 181 174 178 179 178 175 180 184 180 180 174 168 161 154 148 143 142 130 136 122 108 108 115 126 124 131 127 129 131 140 132 110 100 102 22 359 9 42 37 75 84 116 126 125 130 125 129 136 134
231 232 226 218 207 201 205 204 203 202 201 204 206 214 212 206 203 201 200 200 200 195 186 190 190 188 186 181 182 188 187 190 187 184 184 183 179 177 184 177 180 178 183 184 177 183 173 172 167 158 152 148 140 138 147 136 132 128 127 150 146 146 139 135 136 131 130 114 108 101 82 27 11 10 57 68 80 88 98 131 126 117 120 134 138
222 228 223 213 203 208 205 201 202 201 200 205 207 213 210 204 201 199 203 202 196 198 195 193 192 191 184 177 185 188 189 190 186 182 185 182 182 183 184 180 185 177 183 180 174 176 170 151 142 135 137 142 138 145 146 150 149 147 152 156 166 159 151 145 143 136 113 109 121 119 112 87 46 29 24 56 74 80 83 65 66 88 100 107 126
224 229 223 208 210 206 206 206 201 200 203 207 206 208 208 199 198 200 202 197 194 195 198 196 193 191 183 182 188 187 188 190 186 182 183 184 182 180 183 184 183 177 177 171 164 163 153 148 138 138 139 140 143 140 139 151 148 150 164 161 160 153 146 151 140 136 130 131 122 120 118 110 96 56 39 29 31 56 62 56 53 83 97 96 101
236 224 217 220 213 204 201 201 200 203 204 206 207 205 206 201 198 198 200 195 195 198 201 199 193 189 184 186 188 188 188 193 186 183 184 185 183 183 182 183 183 172 167 162 170 171 166 158 153 156 155 160 156 154 162 163 154 154 159 162 164 153 150 148 139 132 143 136 134 125 126 127 114 103 73 49 32 27 39 50 55 61 80 80 74
231 229 217 221 212 203 191 201 198 206 202 206 207 209 205 205 198 196 198 194 196 200 200 198 193 191 186 187 190 190 191 193 186 179 184 188 184 186 186 185 175 167 169 173 174 173 168 164 162 162 158 162 160 160 171 163 157 156 155 161 150 146 147 133 130 131 136 133 133 124 121 117 118 116 114 112 63 31 27 35 42 46 51 53 56
232 228 225 217 218 211 197 205 200 205 206 207 208 208 205 205 201 197 198 191 195 198 198 197 195 192 189 189 189 189 189 190 182 181 184 190 188 189 186 177 162 168 175 174 178 174 169 163 169 163 157 161 162 165 173 157 149 140 144 142 137 150 138 135 133 137 133 143 126 118 109 94 94 84 89 104 96 61 36 39 38 37 43 45 43
234 228 221 213 216 213 207 208 209 206 210 208 208 208 207 207 203 199 199 191 197 197 198 195 194 194 192 191 184 186 186 187 185 186 189 188 190 187 182 167 166 175 177 177 182 177 165 159 160 167 164 157 167 166 166 153 133 124 121 120 128 143 138 137 146 135 138 129 122 113 101 88 79 79 82 73 94 101 59 48 49 38 27 44 42
237 229 223 216 216 210 206 208 214 212 211 211 209 209 211 211 208 204 198 199 200 200 198 195 198 195 192 193 181 183 187 187 186 185 193 188 189 187 175 165 171 179 176 177 185 172 167 167 158 161 158 159 170 170 164 138 122 123 115 116 129 134 123 132 129 143 138 124 118 111 107 105 91 71 68 67 68 72 96 72 64 58 36 37 48
245 236 227 223 218 208 204 204 207 210 209 211 210 209 213 214 214 208 204 207 204 205 203 202 202 196 197 191 179 184 185 184 183 184 191 187 188 186 172 171 177 180 175 178 174 167 166 172 159 152 150 163 170 170 153 130 118 109 109 107 102 103 112 114 139 140 123 108 98 90 91 100 92 79 76 74 67 68 56 68 78 82 58 41 50
261 254 243 228 225 222 214 210 202 203 202 202 198 203 207 210 208 206 215 212 208 206 208 210 202 202 196 189 184 186 185 184 183 184 190 187 189 187 176 170 180 179 178 181 175 178 173 164 162 154 155 141 149 144 135 132 115 104 102 97 91 91 100 117 120 121 126 127 130 137 119 109 105 88 75 73 74 64 65 61 75 81 89 67 56
285 287 282 260 247 239 229 222 204 199 201 198 201 200 204 209 215 218 220 210 209 208 210 211 208 206 195 190 187 188 186 184 186 184 191 188 190 181 171 173 180 183 185 189 181 174 170 165 154 156 158 161 167 160 152 139 131 117 110 119 111 95 95 114 139 142 148 149 144 136 124 122 111 106 89 77 78 71 78 73 73 77 84 105 89
343 347 306 296 277 257 248 239 210 202 208 207 203 202 207 206 206 214 215 214 208 207 213 207 209 203 198 192 194 190 188 187 187 189 191 189 188 178 174 173 179 186 189 185 174 160 158 160 153 154 175 172 169 173 163 155 167 163 155 151 145 144 137 157 165 156 167 153 142 125 125 117 110 113 122 112 99 103 92 95 87 87 88 93 87
344 357 2 343 318 281 257 245 224 207 210 207 205 207 205 209 208 219 210 218 221 223 221 219 205 205 200 197 197 194 194 192 186 188 193 192 187 177 179 176 182 180 180 180 175 173 176 170 171 167 164 181 170 179 180 195 176 164 151 138 169 167 173 209 195 185 174 164 147 130 118 114 104 105 119 125 131 119 103 97 102 98 102 99 99
6 5 359 351 332 301 272 247 241 223 216 206 207 208 208 197 189 167 162 219 244 211 216 218 206 206 209 202 203 202 198 196 191 190 191 190 187 183 178 180 185 184 185 181 182 184 178 176 178 177 165 161 177 187 203 209 209 148 167 218 162 194 176 210 190 182 174 169 180 157 151 145 138 152 138 115 119 121 121 111 108 114 106 104 107
360 354 349 346 341 328 309 275 248 223 218 214 200 200 175 180 192 179 310 225 277 249 231 237 227 221 219 210 213 205 205 203 196 195 197 194 191 187 184 184 183 186 188 185 185 187 182 181 178 174 180 174 174 180 199 205 229 255 187 138 132 216 237 135 164 173 176 186 194 185 164 177 169 163 141 115 120 128 127 126 117 114 120 116 108
354 348 350 352 349 342 336 323 281 243 213 213 201 204 213 209 195 202 218 223 231 222 223 222 212 209 211 209 205 205 206 209 208 203 203 200 199 194 188 183 184 184 191 191 183 177 183 182 183 182 183 190 173 170 185 205 226 236 267 321 346 228 172 142 163 187 172 204 183 193 190 190 191 177 165 145 154 146 136 136 134 131 135 134 121
353 344 357 0 1 0 353 344 331 323 136 176 176 188 201 209 211 214 218 220 228 232 226 222 220 215 208 209 204 199 203 203 205 203 205 205 204 201 196 191 188 188 188 188 185 185 183 184 180 188 188 185 178 181 182 186 197 250 233 240 277 223 255 143 197 131 178 189 207 196 205 204 205 199 178 166 160 163 151 152 152 151 148 152 138
356 358 8 8 4 2 1 6 11 10 43 141 174 199 212 211 214 220 231 238 239 253 217 216 220 212 204 208 206 205 203 208 209 204 205 205 206 205 202 198 195 194 188 194 189 182 178 181 186 190 185 192 187 188 183 179 184 199 192 210 231 230 250 297 235 201 191 167 187 192 204 188 208 213 193 172 171 168 163 165 163 167 164 157 155
12 11 13 11 5 2 7 19 27 27 35 79 183 199 220 233 225 229 238 242 252 257 275 212 231 209 213 213 209 205 199 204 209 206 204 206 205 207 203 203 201 198 191 198 195 184 182 179 182 188 189 191 192 199 189 185 193 187 162 200 195 194 189 241 277 281 224 201 172 182 187 176 212 214 190 176 171 169 175 170 166 176 169 160 158
19 16 21 19 13 6 18 25 26 24 20 26 13 233 226 243 239 241 250 256 258 258 256 258 235 222 221 222 215 211 207 203 207 209 206 208 208 206 205 205 204 200 193 201 194 185 187 188 187 189 189 187 191 198 200 187 193 189 181 168 180 170 187 197 203 195 322 274 222 187 177 173 190 197 181 181 173 176 177 171 171 183 178 171 160
26 28 24 20 14 13 18 29 27 24 22 18 5 348 308 274 261 256 254 256 263 266 264 251 239 227 231 226 219 219 214 211 207 210 210 209 211 209 209 206 206 202 195 201 198 194 193 189 190 193 193 192 191 191 198 194 189 184 182 184 187 181 184 188 187 188 194 184 190 168 168 186 189 165 187 170 169 179 178 176 179 181 182 172 165